Location: Bremen
(53.0830°N, 8.8000°E)
Time: 14:05:13
(UTC+01:00)

Envisat - Pass Details

Date: 12 November 2025
Orbit: 761 x 762 km, 98.4° (Epoch: 13 December)

Event Time Altitude Azimuth Distance (km) Brightness Sun altitude
Rises 05:17:08 0° 6° (N) 3,240 6.3 -21.8°
Reaches altitude 10° 05:20:14 10° 346° (NNW) 2,309 5.3 -21.4°
Enters shadow 05:20:51 12° 340° (NNW) 2,168 5.1 -21.3°
